Weather History for Granada, Spain

Change the Weather History Date:

Thursday, February 2, 2012

  Actual Average Record
Temperature  
Mean Temperature 38 °F -  
Max Temperature 45 °F 58 °F 68 °F (2000)
Min Temperature 30 °F 33 °F 21 °F (2005)
Degree Days  
Heating Degree Days 28    
Moisture  
Dew Point 32 °F    
Average Humidity 77    
Maximum Humidity 100    
Minimum Humidity 41    
Precipitation  
Precipitation 0.12 in - - ()
Sea Level Pressure  
Sea Level Pressure 29.87 in    
Wind  
Wind Speed 3 mph ()    
Max Wind Speed 12 mph    
Max Gust Speed -    
Visibility 5.0 miles    
Events Rain    
Averages and records for this station are not official NWS values.
T = Trace of Precipitation, MM = Missing Value Source: Averaged Metar Reports

Daily Weather History Graph

Daily Weather History Graph

Search for Another Location

Airport:

Trip Planner

Search our weather history database for the weather conditions in past years. The results will help you decide how hot, cold, wet, or windy it might be!

Date:

Astronomy

Feb. 02, 2012 Rise Set
Actual Time 8:17 AM CET 6:40 PM CET
Civil Twilight 7:50 AM CET 7:07 PM CET
Nautical Twilight 7:19 AM CET 7:38 PM CET
Astronomical Twilight 6:48 AM CET 8:09 PM CET
Moon 1:43 PM CET (2/2) 3:44 AM CET (2/2)
Length of Visible Light 11h 17m
Length of Day
10h 22m
Waxing Gibbous, 71% of the Moon is Illuminated
Feb 2
Waxing Gibbous
Feb 7
Full
Feb 14
Last Quarter
Feb 21
New
Mar 1
First Quarter

Hourly Weather History & Observations

Time (CET) Temp. Windchill Dew Point Humidity Pressure Visibility Wind Dir Wind Speed Gust Speed Precip Events Conditions
1:00 AM 35 °F - 27 °F 64% 29.98 in 11 mi SE 2.3 mph - -  
6:00 AM 35.6 °F 32.8 °F 32.0 °F 87% 29.80 in 5.0 mi SSE 3.5 mph - N/A   Mostly Cloudy
6:30 AM 35.6 °F - 32.0 °F 87% 29.80 in 5.0 mi Calm Calm - N/A   Mostly Cloudy
7:00 AM 35 °F - 31 °F 80% 29.88 in 4 mi NW 2.3 mph - - Rain Light Rain
7:00 AM 35.6 °F - 32.0 °F 87% 29.80 in 4.3 mi Variable 1.2 mph - N/A Rain Light Rain
7:05 AM 35.6 °F - 32.0 °F 87% 29.80 in 2.5 mi Variable 2.3 mph - N/A Rain Light Rain
7:30 AM 35.6 °F - 33.8 °F 93% 29.80 in 3.1 mi Calm Calm - N/A   Drizzle
7:56 AM 35.6 °F - 33.8 °F 93% 29.80 in 1.6 mi Calm Calm - N/A   Light Drizzle
8:00 AM 35.6 °F - 33.8 °F 93% 29.80 in 1.6 mi Calm Calm - N/A Rain Light Rain
8:01 AM 35.6 °F - 33.8 °F 93% 29.80 in 1.6 mi Calm Calm - N/A Rain Rain
8:12 AM 35.6 °F - 35.6 °F 100% 29.80 in 1.9 mi Calm Calm - N/A Rain Light Rain
8:24 AM 35.6 °F - 33.8 °F 93% 29.80 in 1.7 mi Calm Calm - N/A Rain Light Rain
8:30 AM 35.6 °F - 33.8 °F 93% 29.80 in 1.8 mi Calm Calm - N/A Rain Light Rain
9:00 AM 37.4 °F - 35.6 °F 93% 29.80 in 1.8 mi Calm Calm - N/A Rain Light Rain
9:30 AM 37.4 °F - 37.4 °F 100% 29.80 in 1.8 mi Variable 1.2 mph - N/A   Mostly Cloudy
10:00 AM 37.4 °F 34.9 °F 37.4 °F 100% 29.80 in 1.6 mi North 3.5 mph - N/A Rain Light Rain
10:14 AM 39.2 °F - 37.4 °F 93% 29.83 in 0.8 mi Variable 2.3 mph - N/A Rain Light Rain
10:30 AM 39.2 °F - 37.4 °F 93% 29.83 in 1.3 mi Calm Calm - N/A Rain Light Rain
10:51 AM 39.2 °F - 39.2 °F 100% 29.83 in 1.9 mi Calm Calm - N/A Rain Light Rain
11:00 AM 39.2 °F - 39.2 °F 100% 29.83 in 1.9 mi Variable 1.2 mph - N/A Rain Light Rain
11:04 AM 39.2 °F 35.9 °F 37.4 °F 93% 29.83 in 3.1 mi NNE 4.6 mph - N/A Rain Light Rain
11:30 AM 39.2 °F - 37.4 °F 93% 29.83 in 3.1 mi Variable 2.3 mph - N/A   Mostly Cloudy
12:00 PM 41.0 °F - 39.2 °F 93% 29.83 in 6.2 mi Variable 2.3 mph - N/A   Mostly Cloudy
12:30 PM 41.0 °F - 39.2 °F 93% 29.83 in 6.2 mi Variable 1.2 mph - N/A   Mostly Cloudy
1:00 PM 42 °F - 34 °F 65% 29.88 in 12 mi NE 8.1 mph - -   Partly Cloudy
1:00 PM 42.8 °F 38.0 °F 37.4 °F 81% 29.83 in 6.2 mi NE 8.1 mph - N/A   Mostly Cloudy
1:30 PM 42.8 °F 38.6 °F 35.6 °F 76% 29.83 in 6.2 mi NE 6.9 mph - N/A   Mostly Cloudy
2:00 PM 44.6 °F 40.7 °F 35.6 °F 71% 29.83 in 6.2 mi NNE 6.9 mph - N/A   Mostly Cloudy
2:30 PM 42.8 °F 37.0 °F 35.6 °F 76% 29.83 in 6.2 mi East 10.4 mph - N/A   Mostly Cloudy
3:00 PM 44.6 °F 39.7 °F 33.8 °F 66% 29.83 in 6.2 mi East 9.2 mph - N/A   Mostly Cloudy
3:30 PM 44.6 °F 39.2 °F 32.0 °F 61% 29.83 in 6.2 mi ENE 10.4 mph - N/A   Mostly Cloudy
4:00 PM 46.4 °F - 33.8 °F 62% 29.86 in 6.2 mi Variable 2.3 mph - N/A   Scattered Clouds
4:30 PM 44.6 °F 38.8 °F 30.2 °F 57% 29.86 in 6.2 mi NNE 11.5 mph - N/A   Scattered Clouds
5:00 PM 44.6 °F 38.8 °F 26.6 °F 49% 29.86 in 6.2 mi NE 11.5 mph - N/A   Scattered Clouds
5:30 PM 42.8 °F 36.6 °F 26.6 °F 53% 29.89 in 6.2 mi NNE 11.5 mph - N/A   Scattered Clouds
6:00 PM 41.0 °F 34.3 °F 23.0 °F 49% 29.92 in 6.2 mi NNE 11.5 mph - N/A   Scattered Clouds
6:30 PM 39.2 °F 35.0 °F 23.0 °F 52% 29.95 in 6.2 mi North 5.8 mph - N/A   Scattered Clouds
7:00 PM 37 °F - 22 °F 41% 30.02 in 16 mi NNE 8.1 mph - -   Partly Cloudy
7:00 PM 37.4 °F 32.1 °F 23.0 °F 56% 29.95 in 6.2 mi NNE 6.9 mph - N/A   Scattered Clouds
7:30 PM 37.4 °F 34.9 °F 23.0 °F 56% 29.98 in 6.2 mi NE 3.5 mph - N/A   Scattered Clouds
8:00 PM 37.4 °F 31.4 °F 23.0 °F 56% 29.98 in 6.2 mi NE 8.1 mph - N/A   Scattered Clouds
8:30 PM 35.6 °F 32.8 °F 23.0 °F 60% 29.98 in 6.2 mi East 3.5 mph - N/A   Scattered Clouds
9:00 PM 35.6 °F 32.8 °F 23.0 °F 60% 30.01 in 6.2 mi East 3.5 mph - N/A   Partly Cloudy
9:30 PM 32.0 °F - 23.0 °F 69% 30.01 in 6.2 mi Variable 2.3 mph - N/A   Partly Cloudy
10:00 PM 32.0 °F - 24.8 °F 75% 30.01 in 6.2 mi Calm Calm - N/A   Scattered Clouds
10:30 PM 30.2 °F - 24.8 °F 80% 30.01 in 6.2 mi Calm Calm - N/A   Partly Cloudy
11:00 PM 33.8 °F 28.6 °F 23.0 °F 65% 30.04 in 6.2 mi NNE 5.8 mph - N/A   Partly Cloudy